Time,TemperatureF,DewpointF,PressureIn,WindDirection,WindDirectionDegrees,WindSpeedMPH,WindSpeedGustMPH,Humidity,HourlyPrecipIn,Conditions,Clouds,dailyrainin,SoftwareType,DateUTC
2015-07-06 00:05:00,79.0,61.5,29.84,SSE,168,7.0,7.0,55,0.00,,,0.00,Wunderground v.1.15,2015-07-06 07:05:00,
2015-07-06 00:10:00,78.5,61.5,29.84,SSE,167,7.0,7.0,56,0.00,,,0.00,Wunderground v.1.15,2015-07-06 07:10:00,
2015-07-06 00:20:00,77.9,61.4,29.84,South,169,6.0,6.0,57,0.00,,,0.00,Wunderground v.1.15,2015-07-06 07:20:00,
2015-07-06 00:30:00,77.2,61.3,29.84,South,169,4.0,11.0,58,0.00,,,0.00,Wunderground v.1.15,2015-07-06 07:30:00,
2015-07-06 00:40:00,76.7,61.3,29.85,South,169,2.0,6.0,59,0.00,,,0.00,Wunderground v.1.15,2015-07-06 07:40:00,
2015-07-06 00:50:00,76.3,61.4,29.86,South,169,4.0,11.0,60,0.00,,,0.00,Wunderground v.1.15,2015-07-06 07:50:00,
2015-07-06 01:00:00,75.8,61.4,29.86,South,171,5.0,5.0,61,0.00,,,0.00,Wunderground v.1.15,2015-07-06 08:00:00,
2015-07-06 01:10:00,75.2,61.3,29.86,South,169,5.0,5.0,62,0.00,,,0.00,Wunderground v.1.15,2015-07-06 08:10:00,
2015-07-06 01:20:00,74.6,61.2,29.86,SSE,155,7.0,7.0,63,0.00,,,0.00,Wunderground v.1.15,2015-07-06 08:20:00,
2015-07-06 01:25:00,74.3,60.9,29.86,SSE,161,8.0,8.0,63,0.00,,,0.00,Wunderground v.1.15,2015-07-06 08:25:00,
2015-07-06 01:35:00,73.9,61.0,29.87,SSE,164,7.0,9.0,64,0.00,,,0.00,Wunderground v.1.15,2015-07-06 08:35:00,
2015-07-06 01:45:00,73.6,60.7,29.87,South,173,5.0,15.0,64,0.00,,,0.00,Wunderground v.1.15,2015-07-06 08:45:00,
2015-07-06 01:55:00,73.2,59.8,29.88,South,175,5.0,12.0,63,0.00,,,0.00,Wunderground v.1.15,2015-07-06 08:55:00,
2015-07-06 02:05:00,72.8,59.9,29.88,South,171,2.0,5.0,64,0.00,,,0.00,Wunderground v.1.15,2015-07-06 09:05:00,
2015-07-06 02:15:00,72.4,59.5,29.89,SSE,163,0.0,1.0,64,0.00,,,0.00,Wunderground v.1.15,2015-07-06 09:15:00,
2015-07-06 02:20:00,72.3,59.9,29.89,SSE,168,0.0,4.0,65,0.00,,,0.00,Wunderground v.1.15,2015-07-06 09:20:00,
2015-07-06 02:30:00,71.9,59.5,29.89,South,178,0.0,3.0,65,0.00,,,0.00,Wunderground v.1.15,2015-07-06 09:30:00,
2015-07-06 02:40:00,71.4,59.4,29.89,South,181,1.0,3.0,66,0.00,,,0.00,Wunderground v.1.15,2015-07-06 09:40:00,
2015-07-06 02:45:00,71.1,59.6,29.89,South,178,1.0,3.0,67,0.00,,,0.00,Wunderground v.1.15,2015-07-06 09:45:00,
2015-07-06 02:55:00,70.6,59.1,29.89,South,179,1.0,3.0,67,0.00,,,0.00,Wunderground v.1.15,2015-07-06 09:55:00,
2015-07-06 03:05:00,70.4,58.9,29.89,SSE,158,1.0,2.0,67,0.00,,,0.00,Wunderground v.1.15,2015-07-06 10:05:00,
2015-07-06 03:10:00,70.4,58.5,29.90,South,177,2.0,2.0,66,0.00,,,0.00,Wunderground v.1.15,2015-07-06 10:10:00,
2015-07-06 03:20:00,70.4,58.1,29.90,SSE,168,3.0,3.0,65,0.00,,,0.00,Wunderground v.1.15,2015-07-06 10:20:00,
2015-07-06 03:30:00,70.2,58.3,29.90,SSE,167,4.0,4.0,66,0.00,,,0.00,Wunderground v.1.15,2015-07-06 10:30:00,
2015-07-06 03:40:00,70.1,58.2,29.90,South,179,2.0,2.0,66,0.00,,,0.00,Wunderground v.1.15,2015-07-06 10:40:00,
2015-07-06 03:50:00,70.0,58.1,29.90,SSE,162,2.0,6.0,66,0.00,,,0.00,Wunderground v.1.15,2015-07-06 10:50:00,
2015-07-06 03:55:00,70.0,58.1,29.90,South,174,2.0,6.0,66,0.00,,,0.00,Wunderground v.1.15,2015-07-06 10:55:00,
2015-07-06 04:05:00,69.8,57.9,29.91,SSE,165,4.0,4.0,66,0.00,,,0.00,Wunderground v.1.15,2015-07-06 11:05:00,
2015-07-06 04:15:00,69.3,58.3,29.92,South,171,3.0,4.0,68,0.00,,,0.00,Wunderground v.1.15,2015-07-06 11:15:00,
2015-07-06 04:20:00,69.0,58.0,29.92,SSE,166,1.0,5.0,68,0.00,,,0.00,Wunderground v.1.15,2015-07-06 11:20:00,
2015-07-06 04:30:00,68.6,58.4,29.92,South,175,1.0,1.0,70,0.00,,,0.00,Wunderground v.1.15,2015-07-06 11:30:00,
2015-07-06 04:40:00,68.2,58.0,29.92,South,178,0.0,0.0,70,0.00,,,0.00,Wunderground v.1.15,2015-07-06 11:40:00,
2015-07-06 04:50:00,67.7,58.3,29.92,South,178,0.0,0.0,72,0.00,,,0.00,Wunderground v.1.15,2015-07-06 11:50:00,
2015-07-06 05:00:00,67.2,58.6,29.92,South,178,0.0,0.0,74,0.00,,,0.00,Wunderground v.1.15,2015-07-06 12:00:00,
2015-07-06 05:05:00,67.0,58.4,29.92,South,178,0.0,0.0,74,0.00,,,0.00,Wunderground v.1.15,2015-07-06 12:05:00,
2015-07-06 05:15:00,66.4,58.6,29.93,South,178,0.0,0.0,76,0.00,,,0.00,Wunderground v.1.15,2015-07-06 12:15:00,
2015-07-06 05:25:00,66.1,58.3,29.93,South,178,0.0,0.0,76,0.00,,,0.00,Wunderground v.1.15,2015-07-06 12:25:00,
2015-07-06 05:30:00,65.9,58.5,29.93,South,178,0.0,0.0,77,0.00,,,0.00,Wunderground v.1.15,2015-07-06 12:30:00,
2015-07-06 05:40:00,65.8,58.7,29.94,South,178,0.0,0.0,78,0.00,,,0.00,Wunderground v.1.15,2015-07-06 12:40:00,
2015-07-06 05:50:00,65.8,58.4,29.94,South,178,0.0,0.0,77,0.00,,,0.00,Wunderground v.1.15,2015-07-06 12:50:00,
2015-07-06 06:00:00,65.9,58.5,29.94,South,178,0.0,0.0,77,0.00,,,0.00,Wunderground v.1.15,2015-07-06 13:00:00,
2015-07-06 06:10:00,66.1,58.7,29.95,South,178,0.0,0.0,77,0.00,,,0.00,Wunderground v.1.15,2015-07-06 13:10:00,
2015-07-06 06:15:00,66.1,58.3,29.95,South,178,0.0,0.0,76,0.00,,,0.00,Wunderground v.1.15,2015-07-06 13:15:00,
2015-07-06 06:25:00,66.3,58.5,29.95,South,181,0.0,0.0,76,0.00,,,0.00,Wunderground v.1.15,2015-07-06 13:25:00,
2015-07-06 06:35:00,66.4,58.6,29.96,South,181,0.0,0.0,76,0.00,,,0.00,Wunderground v.1.15,2015-07-06 13:35:00,
2015-07-06 06:40:00,66.5,58.3,29.96,South,171,1.0,7.0,75,0.00,,,0.00,Wunderground v.1.15,2015-07-06 13:40:00,
2015-07-06 06:50:00,66.7,58.5,29.97,South,172,2.0,2.0,75,0.00,,,0.00,Wunderground v.1.15,2015-07-06 13:50:00,
2015-07-06 07:00:00,66.7,58.5,29.97,South,172,0.0,0.0,75,0.00,,,0.00,Wunderground v.1.15,2015-07-06 14:00:00,
2015-07-06 07:05:00,66.9,58.7,29.97,South,172,0.0,2.0,75,0.00,,,0.00,Wunderground v.1.15,2015-07-06 14:05:00,
2015-07-06 07:15:00,67.2,59.0,29.98,South,172,1.0,1.0,75,0.00,,,0.00,Wunderground v.1.15,2015-07-06 14:15:00,
2015-07-06 07:25:00,67.1,59.3,29.97,South,179,3.0,6.0,76,0.00,,,0.00,Wunderground v.1.15,2015-07-06 14:25:00,
2015-07-06 07:30:00,67.2,59.0,29.98,South,177,2.0,2.0,75,0.00,,,0.00,Wunderground v.1.15,2015-07-06 14:30:00,
2015-07-06 07:40:00,67.7,59.5,29.98,South,176,1.0,5.0,75,0.00,,,0.00,Wunderground v.1.15,2015-07-06 14:40:00,
2015-07-06 07:50:00,67.5,59.3,29.98,South,171,3.0,6.0,75,0.00,,,0.00,Wunderground v.1.15,2015-07-06 14:50:00,
2015-07-06 08:00:00,67.6,59.4,29.99,SSE,167,3.0,5.0,75,0.00,,,0.00,Wunderground v.1.15,2015-07-06 15:00:00,
2015-07-06 08:10:00,68.2,58.8,29.99,South,185,2.0,3.0,72,0.00,,,0.00,Wunderground v.1.15,2015-07-06 15:10:00,
2015-07-06 08:15:00,68.0,59.4,29.99,SSE,159,4.0,4.0,74,0.00,,,0.00,Wunderground v.1.15,2015-07-06 15:15:00,
2015-07-06 08:25:00,68.3,59.3,29.99,SSE,167,3.0,3.0,73,0.00,,,0.00,Wunderground v.1.15,2015-07-06 15:25:00,